SCP
1 0 0 0 0 0 0 0 0 0 0 1 1 0 0 0 0 0 0 0 0 0 0 0 0 0 0 0 0 0 0 0 0 0 0 0 0 0 0 0 0 0 0
1 1 0 0 0 0 0 0 0 0 0 1 1 0 0 0 0 0 0 0 0 0 0 0 0 0 0 0 0 0 0 0 0 0 0 0 0 0 0 0 0 0 0
1 1 0 0 0 0 0 0 0 0 0 1 0 0 0 0 0 0 0 0 0 0 0 0 0 0 0 0 0 0 0 0 0 0 0 0 0 0 0 0 0 0 0
1 1 1 0 0 0 0 0 0 0 0 0 0 0 0 0 0 0 0 0 0 0 0 0 0 0 0 0 0 0 0 0 0 0 0 0 0 0 0 0 0 0 0
1 1 0 0 0 0 0 0 0 0 0 0 0 0 0 0 0 0 0 0 0 0 0 0 0 0 0 0 0 0 0 0 0 0 0 0 0 0 0 0 0 0 0
0 1 0 0 0 0 0 0 0 0 0 0 0 0 0 0 0 0 0 0 0 0 0 0 0 0 0 0 0 0 0 0 0 0 0 0 0 0 0 0 0 0 0
0 0 1 0 0 0 0 0 0 0 0 0 0 0 0 0 0 0 0 0 0 0 0 0 0 0 0 0 0 0 0 0 0 0 0 0 0 0 0 0 0 0 0
0 0 0 0 0 0 0 0 0 0 0 0 0 0 0 0 0 0 0 0 0 0 0 0 0 0 0 0 0 0 0 0 0 0 0 0 0 0 0 0 0 0 0
0 0 0 0 0 0 0 0 0 0 0 0 0 0 0 0 0 0 0 0 0 0 0 0 0 0 0 0 0 0 0 0 0 0 0 0 0 0 0 0 0 0 0
0 0 0 0 0 0 0 0 0 0 0 0 0 0 0 0 0 0 0 0 0 0 0 0 0 0 0 0 0 0 0 0 0 0 0 0 0 0 0 0 0 0 0
0 0 0 0 0 0 0 0 0 0 0 0 0 0 0 0 0 0 0 0 0 0 0 0 0 0 0 0 0 0 0 0 0 0 0 0 0 0 0 0 0 0 0
0 0 0 0 0 0 0 0 0 0 0 0 0 0 0 0 0 0 0 0 0 0 0 0 0 0 0 0 0 0 0 0 0 0 0 0 0 0 0 0 0 0 0
0 0 0 0 0 0 0 0 0 0 0 0 0 0 0 0 0 0 0 0 0 0 0 0 0 0 0 0 0 0 0 0 0 0 0 0 0 0 0 0 0 0 0
0 0 0 0 0 0 0 0 0 0 0 0 0 0 0 0 0 0 0 0 0 0 0 0 0 0 0 0 0 0 0 0 0 0 0 0 0 0 0 0 0 0 0
0 1 0 0 0 0 0 0 0 0 0 0 0 0 0 0 0 0 0 0 0 0 0 0 0 0 0 0 0 0 0 0 0 0 0 0 0 0 0 0 0 0 0
1 1 1 0 0 0 0 0 0 0 0 0 0 0 0 0 0 0 0 0 0 0 0 0 0 0 0 0 0 0 0 0 0 0 0 0 0 0 0 0 0 0 0
0 0 0 0 0 0 0 0 0 0 0 0 0 0 0 0 0 0 0 0 0 0 0 0 0 0 0 0 0 0 0 0 0 0 0 0 0 0 0 0 0 0 0
0 0 0 0 0 0 0 0 0 0 0 0 0 0 0 0 0 0 0 0 0 0 0 0 0 0 0 0 0 0 0 0 0 0 0 0 0 0 0 0 0 0 0
0 0 0 0 0 0 0 0 0 0 0 0 0 0 0 0 0 0 0 0 0 0 0 0 0 0 0 0 0 0 0 0 0 0 0 0 0 0 0 0 0 0 0
0 0 0 0 0 0 1 1 0 0 0 0 0 0 0 0 0 0 0 0 0 0 0 0 0 0 0 0 0 0 0 0 0 0 0 0 0 0 0 0 0 0 0
0 0 0 0 0 1 1 1 0 0 0 0 0 0 0 0 0 0 0 0 0 0 0 0 0 0 0 0 0 0 0 0 0 0 0 0 0 0 0 0 0 0 0
0 0 0 0 0 1 1 1 1 0 0 0 1 1 1 1 1 1 1 0 0 0 0 0 0 0 0 0 0 0 0 0 0 0 0 0 0 0 0 0 0 0 0
0 0 1 1 1 1 1 1 1 1 1 1 1 1 1 1 1 1 1 1 0 0 0 0 0 0 0 0 0 0 0 0 0 0 0 0 0 0 0 0 0 0 0
0 0 1 1 1 1 1 1 1 1 1 1 1 1 1 1 1 1 1 1 1 0 0 0 0 0 0 0 0 0 0 0 0 0 0 0 0 0 0 0 0 0 0
0 0 0 1 1 1 1 1 1 1 1 1 1 1 1 1 1 1 1 1 0 0 0 0 0 0 0 0 0 0 0 0 0 0 0 0 0 0 0 0 0 0 0
0 0 0 0 1 1 1 1 1 1 1 1 1 1 1 1 1 1 1 0 0 0 0 0 0 0 0 0 0 0 0 0 0 0 0 0 0 0 0 0 0 0 0
Wind_Speed
12 12 11 11 11 11 11 11 10 10 8 7 7 6 6 5 4 4 5 5 4 4 2 2 3 2 2 1 2 2 3 2 1 2 2 2 2 2 1 1 1 1 1
13 13 12 12 12 12 12 12 12 11 10 7 5 4 5 4 4 4 5 5 5 4 3 2 2 2 2 2 2 2 1 1 2 2 2 3 3 3 2 1 2 1 1
15 14 13 13 12 12 12 11 12 12 10 9 7 6 5 5 5 5 5 5 5 4 3 3 2 1 2 2 2 2 2 2 2 1 2 2 1 3 3 2 2 2 1
15 15 15 14 13 12 12 12 12 12 11 10 9 10 7 6 6 5 5 6 5 5 4 4 3 1 1 2 2 2 1 2 2 2 1 2 2 2 2 4 3 3 2
16 16 15 14 13 12 12 12 12 11 11 11 10 9 7 6 6 6 7 6 6 5 5 4 3 2 1 2 1 1 1 1 1 1 2 1 1 3 2 2 3 3 2
16 16 14 13 13 13 12 12 12 12 12 11 11 10 9 8 9 8 8 7 6 5 6 5 4 3 2 2 2 1 2 1 1 1 1 1 1 1 1 1 2 2 2
16 16 16 15 14 14 13 13 13 12 12 12 11 10 10 10 10 9 8 7 6 5 6 5 4 3 3 2 2 2 1 1 1 1 1 1 1 1 2 1 1 2 2
15 15 16 16 15 15 14 13 13 12 12 11 10 10 10 9 8 9 7 7 5 5 7 6 5 4 4 3 3 2 3 2 1 1 1 1 0 1 1 2 2 3 3
16 16 16 16 16 15 15 14 13 12 12 11 11 9 10 8 8 8 7 6 5 6 7 6 6 5 4 3 3 2 2 2 2 3 3 1 1 0 1 1 3 4 3
16 16 16 16 15 15 14 14 13 13 12 12 11 9 9 9 8 8 8 7 7 6 8 7 6 5 5 4 4 4 3 3 2 1 1 1 1 0 1 1 1 3 4
16 16 15 15 15 15 15 14 13 13 12 12 11 10 10 10 9 8 9 8 8 8 8 7 6 6 5 5 4 3 4 4 3 3 3 2 1 1 1 1 1 1 2
15 15 16 16 15 16 15 14 14 13 13 12 12 11 10 10 10 10 9 9 9 8 8 7 7 7 6 5 5 5 5 4 4 3 3 3 2 2 2 1 1 1 2
14 15 16 15 15 15 15 15 14 14 14 13 13 12 12 11 10 10 10 9 9 8 8 8 7 7 6 6 5 5 5 4 3 3 3 3 3 3 2 2 2 2 2
14 15 15 15 15 15 15 15 15 14 14 13 13 13 12 11 11 10 10 10 9 9 8 8 7 7 7 7 6 6 5 4 4 3 3 4 4 3 3 3 3 3 3
15 16 16 15 15 15 15 14 14 14 14 14 13 13 12 11 11 11 10 10 10 10 9 8 8 8 7 7 7 7 7 6 5 5 5 4 2 2 3 4 3 3 5
15 16 16 16 16 16 16 15 15 14 14 14 14 13 12 12 12 12 11 11 10 10 9 9 9 9 7 6 5 6 6 6 6 6 5 5 6 6 7 6 6 6 6
14 15 16 16 15 16 16 16 15 15 15 14 14 13 13 13 13 13 12 12 11 11 10 10 10 9 7 9 8 7 7 7 6 6 6 6 4 6 7 8 10 10 10
12 13 14 15 15 15 16 15 15 15 15 15 14 14 14 14 13 13 13 12 11 11 10 10 10 9 9 11 10 8 9 8 7 8 8 7 6 6 6 7 7 8 8
10 10 12 14 14 15 15 15 15 16 16 16 15 15 15 14 14 14 13 12 11 11 11 10 10 10 9 12 11 10 9 8 9 9 9 9 9 5 5 8 9 9 8
7 8 10 11 13 14 15 16 16 16 16 16 16 15 15 14 14 14 13 11 11 11 10 10 10 11 10 12 13 13 9 8 8 8 9 9 10 6 8 9 9 9 8
5 8 9 10 12 14 15 16 16 16 16 15 14 14 14 14 13 12 11 11 11 11 10 10 10 10 10 11 14 14 9 8 8 8 8 7 12 11 10 10 9 8 7
5 7 8 8 10 13 14 15 15 15 14 14 14 14 14 13 12 12 11 11 11 10 10 9 9 9 9 10 12 15 14 10 9 8 7 4 10 11 10 9 8 7 7
4 5 7 8 9 11 13 14 13 13 13 13 13 13 13 12 11 12 12 11 10 9 9 9 9 9 8 9 12 14 14 13 9 7 4 1 6 7 9 13 11 9 9
3 4 6 7 8 9 11 11 11 12 13 13 13 12 12 12 11 10 10 10 10 10 9 9 8 8 8 8 9 10 11 12 11 10 8 9 10 10 9 7 10 10 9
2 3 5 6 6 7 8 9 10 11 12 13 12 12 12 11 10 10 8 9 9 7 7 7 8 7 7 5 4 5 6 6 5 6 7 8 8 9 9 9 8 8 9
3 3 4 5 5 6 6 7 9 10 11 11 11 10 9 9 9 9 8 4 3 4 4 3 4 3 2 4 5 4 3 2 2 5 8 8 8 8 8 8 8 8 8
Wind_Direction
179 172 174 173 171 174 173 171 166 163 164 163 166 163 159 155 150 153 149 155 150 148 173 156 149 211 168 180 192 202 176 188 189 225 195 172 158 138 165 180 179 155 156
174 175 175 176 179 178 175 170 169 169 173 166 158 154 145 149 143 140 145 151 146 152 157 145 168 163 153 168 188 215 240 186 200 242 230 204 169 164 112 130 136 102 133
180 177 178 181 181 180 179 175 171 171 171 160 156 149 148 154 152 157 157 152 151 152 130 145 137 150 196 150 187 205 221 208 185 255 269 256 195 153 140 127 106 106 97
184 181 180 181 183 181 177 174 172 172 168 169 170 170 173 169 165 168 155 154 159 156 149 146 137 167 151 134 193 123 228 228 195 169 257 323 354 265 161 156 137 138 132
186 184 182 179 179 176 175 173 172 173 174 179 174 179 177 169 162 163 153 161 154 160 156 151 148 159 151 109 71 98 298 235 249 205 187 169 198 257 247 152 154 155 133
186 182 178 176 176 175 174 171 172 173 175 180 179 185 176 171 166 167 163 171 160 162 160 158 156 165 138 130 126 126 126 21 11 301 256 236 239 243 247 191 181 154 125
183 178 176 178 178 177 175 173 171 173 177 180 182 183 179 174 173 174 172 175 167 165 162 160 159 151 138 142 140 136 91 116 122 236 262 312 328 325 300 266 198 176 159
182 179 178 179 179 177 175 174 173 174 175 179 178 179 179 180 176 179 175 178 175 159 155 160 160 156 157 156 154 163 150 136 152 130 11 268 64 323 310 295 270 234 198
180 179 177 177 176 175 175 175 174 172 173 175 174 177 181 182 171 169 180 173 165 157 162 164 162 160 159 158 179 145 151 154 187 166 169 219 120 245 307 295 293 293 277
178 176 175 175 175 175 173 174 174 172 171 172 176 173 176 176 171 176 176 169 167 161 165 167 166 164 164 167 185 168 147 160 150 91 67 290 205 343 256 281 292 296 298
176 174 173 173 174 174 172 174 173 173 173 174 176 171 174 172 172 174 173 171 169 166 170 170 170 171 171 170 182 184 164 177 162 173 167 186 331 283 256 242 262 274 285
171 171 171 172 174 174 172 174 175 176 176 175 174 173 170 171 174 174 173 171 170 174 172 174 177 181 176 178 186 188 177 182 180 182 183 195 185 204 271 283 280 303 315
169 170 171 173 177 176 175 175 178 179 178 175 176 174 173 175 179 175 172 173 175 178 176 180 184 185 181 185 191 193 189 191 194 199 206 209 207 222 224 260 264 255 242
173 174 174 177 179 178 178 178 180 179 177 177 178 177 178 178 178 176 174 177 179 182 183 186 188 188 189 191 194 196 197 202 205 212 221 220 219 221 227 233 243 263 271
179 180 179 179 180 180 181 182 182 180 178 180 181 180 179 179 178 177 178 179 184 186 185 188 190 193 197 198 196 199 200 205 211 212 219 220 235 334 286 287 274 256 259
184 183 182 182 183 183 183 183 183 181 181 183 184 181 181 180 181 181 180 181 187 190 187 193 195 200 204 154 179 230 213 211 217 218 221 215 207 211 225 257 276 287 274
186 186 186 186 186 186 184 184 183 181 183 186 185 183 183 184 184 185 183 185 188 189 193 197 201 205 187 158 183 220 239 226 223 225 230 241 209 209 227 215 220 236 243
187 188 189 188 189 186 184 185 182 183 185 187 187 185 186 186 185 186 187 189 190 193 197 200 203 208 192 175 190 203 230 236 229 229 230 240 244 237 246 252 244 244 232
190 189 191 187 186 185 183 183 183 185 188 189 190 188 188 188 187 190 190 191 192 196 200 202 205 210 197 180 189 201 224 226 230 232 231 234 238 212 211 249 254 257 255
193 190 190 186 183 183 181 184 186 188 192 192 191 189 189 191 192 192 192 191 194 200 204 204 206 210 209 183 188 203 232 228 229 225 228 229 238 209 197 238 250 254 259
190 189 188 187 183 179 181 188 190 193 194 192 190 189 189 191 192 190 190 192 196 200 208 206 207 210 214 186 188 201 233 239 234 234 229 219 192 207 211 234 253 262 274
183 183 185 186 181 180 184 190 194 193 190 189 188 188 188 190 187 187 189 193 198 198 203 208 213 211 208 207 193 197 219 251 251 250 249 217 171 194 210 224 239 247 257
173 178 178 177 179 183 189 194 193 188 186 186 187 186 186 190 187 186 188 190 195 205 205 205 210 213 206 195 191 197 211 225 242 255 279 277 183 206 222 229 233 234 240
166 170 170 171 176 183 191 195 186 184 183 184 184 183 183 186 188 191 191 195 195 204 208 209 213 215 208 208 192 196 202 207 224 241 235 220 221 235 257 245 218 227 243
151 163 167 166 169 173 182 184 180 179 182 183 182 182 183 184 184 193 199 203 203 207 213 213 211 215 216 197 182 213 212 215 218 230 236 239 232 228 231 235 238 239 237
108 133 150 155 157 161 169 174 175 178 179 179 181 183 182 180 186 186 189 190 221 168 208 267 266 226 166 141 163 195 223 195 169 233 246 247 249 251 254 253 250 245 247